Tracking 22454 objects as of 5-Mar-2021
HD Live streaming from Space Station
objects crossing your sky now

DELTA 1 DEB

Track DELTA 1 DEB now!
10-day predictions


NORAD ID: 42633
Int'l Code: 1975-052LS
Perigee: 1,082.0 km
Apogee: 1,271.5 km
Inclination: 99.8 °
Period: 108.8 minutes
Semi major axis: 7547 km
RCS: Unknown
Launch date: June 12, 1975
Source: United States (US)
Launch site: AIR FORCE WESTERN TEST RANGE (AFWTR)

Note: This is SATELLITE DEBRIS
aabbcc
Your satellite tracking list
Your tracking list is empty




NASA's NSSDC Master Catalog

Two Line Element Set (TLE):
1 42633U 75052LS  21063.06834947  .00000020  00000-0  13904-3 0  9992
2 42633  99.7512   6.4531 0125530 277.7040  80.9840 13.23969887351751
Source of the keplerian elements: AFSPC